{"data":{"norad_id":68169,"intl_designator":"2026-050C","name":"STARLINK-37077","alt_names":[],"object_type":"PAYLOAD","status":"ACTIVE","operator":null,"country":"US","launch_date":"2026-03-14","launch_site_code":"AFETR","launch_vehicle":null,"mission":null,"orbit_class":"UNKNOWN","rcs_meters":null,"size_class":null,"mass_kg":null,"dimensions":null,"purposes":["comms"],"wikipedia_slug":null,"has_3d_model":false,"image_url":null,"decayed_at":null,"tle_current":{"epoch":"2026-09-19T21:48:10.307232Z","epoch_age_seconds":107276,"freshness":"FRESH","line1":"1 68169U 26050C   26262.90845263  .00015006  00000+0  45427-3 0  9994","line2":"2 68169  53.1588  80.7493 0000043 212.4635 147.6365 15.34404906 30475","mean_motion":15.34404906,"eccentricity":4.3e-6,"inclination_deg":53.1588,"raan_deg":80.7493,"arg_perigee_deg":212.4635,"mean_anomaly_deg":147.6365,"bstar":0.00045427,"rev_number":3047,"period_min":93.847458019011,"perigee_km":462.65924302973,"apogee_km":462.7180741304,"semimajor_km":6840.8256585801,"source":"CELESTRAK","updated_at":"2026-09-20T09:00:43.798675Z"}}}